[[{"header":{"parameterUnit":"m.s-1","parameterCategory":1,"la1":30.2992,"la2":30.254,"lo1":-89.0895,"lo2":-89.0443,"dy":0.0025,"dx":0.0025,"nx":19,"ny":19,"refTime":"2026-04-23T03:00:00:Z","depth":0,"parameterNumber":2,"parameterNumberName":"U-component_of_WINDS"},"data":[0,0,0,-4.8484,-4.8485,-4.8523,-4.8523,-4.8596,-4.8597,0,0,0,0,0,0,0,0,0,0,0,-4.8489,-4.849,-4.8484,-4.8485,-4.8523,-4.8523,-4.8596,-4.8597,0,0,0,0,0,0,0,0,0,0,0,-4.8489,-4.849,-4.8491,-4.8486,-4.8523,-4.8523,-4.8596,-4.8558,0,0,0,0,0,0,0,0,0,0,-4.8518,-4.8538,-4.849,-4.8491,-4.8486,-4.8523,-4.8523,-4.8556,-4.8561,-4.859,0,-4.8621,0,-4.861,-4.8603,-4.8604,0,0,0,-4.8473,-4.8534,-4.853,-4.8491,-4.8487,-4.8523,-4.8502,-4.8558,-4.8564,-4.8597,-4.8622,-4.8624,-4.8612,-4.8604,-4.8605,-4.8816,-4.8817,0,0,-4.8471,-4.8504,-4.8526,-4.8534,-4.853,-4.8501,-4.8504,-4.8561,-4.8591,-4.8622,-4.8625,-4.8613,-4.8605,-4.8605,-4.8814,-4.8816,0,0,0,-4.8474,-4.8503,-4.8497,-4.8532,-4.8537,-4.8503,-4.8505,-4.8588,-4.8583,-4.8626,-4.8614,-4.8605,-4.8607,-4.8813,-4.8815,-4.8922,0,0,0,-4.8472,-4.8504,-4.8497,-4.8517,-4.8536,-4.8563,-4.8532,-4.8579,-4.8585,-4.8613,-4.8605,-4.8607,-4.8811,-4.8814,-4.8915,-4.8966,0,0,0,-4.8481,-4.8505,-4.8516,-4.8519,-4.8536,-4.8561,-4.8559,-4.858,-4.8578,-4.8604,-4.8608,-4.881,-4.8813,-4.8909,-4.8956,-4.903,0,0,0,-4.85,-4.8611,-4.8519,-4.8638,-4.8536,-4.8628,-4.8558,-4.8625,-4.866,-4.8606,-4.8811,-4.8815,-4.8907,-4.895,-4.9024,-4.9096,-4.913,0,0,-4.8658,-4.8632,-4.8699,-4.8617,-4.8734,-4.862,-4.8752,-4.8753,-4.8726,-4.8787,-4.8792,-4.8917,-4.8956,-4.9029,-4.9313,-4.934,0,0,0,-4.876,-4.8809,-4.8833,-4.8868,-4.8872,-4.8879,-4.8856,-4.8857,-4.8908,-4.8764,-4.8964,-4.8986,-4.9027,-4.906,-4.9083,-4.9116,-4.8832,-4.8832,-4.8831,-4.9029,-4.8988,-4.9097,-4.9061,-4.9097,-4.9073,-4.9097,-4.9093,-4.9042,-4.9091,-4.9107,-4.9285,-4.9325,-4.9342,-4.9376,-4.9145,-4.9145,-4.9145,-4.9146,-4.9254,-4.9316,-4.9247,-4.9327,-4.9284,-4.935,-4.9332,-4.9294,-4.935,-4.9268,-4.9303,-4.9215,-4.9373,-4.94,-4.9153,-4.9152,-4.9151,-4.915,-4.915,-4.9424,-4.9446,-4.9446,-4.9492,-4.9532,-4.9493,-4.9549,-4.9508,-4.947,-4.9505,-4.9517,-4.9515,-4.9506,-4.9514,-4.9515,-4.9515,-4.9516,-4.9516,-4.9517,-4.9598,-4.9594,-4.9647,-4.9661,-4.9678,-4.9695,-4.9674,-4.9689,-4.9696,-4.9661,-4.9661,-4.9605,-4.9397,-4.9344,-4.9526,-4.9524,-4.9523,-4.9522,-4.9522,-4.9838,-4.9777,-4.9858,-4.9876,-4.9889,-4.9931,-4.9879,-4.9915,-4.9922,-4.9951,-4.9888,-4.9741,-4.971,-4.9692,-4.9647,-4.9897,-4.9897,-4.9897,-4.9897,-4.9978,-4.996,-5.0033,-5.0063,-5.0088,-5.0049,-5.0142,-5.0127,-5.0102,-5.0103,-5.0062,-5.0001,-4.9984,-4.9963,-4.9938,-4.9896,-5.0204,-5.0204,-5.0204,-5.0122,-5.0104,-5.019,-5.0165,-5.0173,-5.018,-5.0265,-5.0302,-5.0262,-5.0216,-5.0103,-5.009,-4.9991,-4.9961,-4.991,-4.9873,-4.9795,0,0]},{"header":{"parameterUnit":"m.s-1","parameterCategory":1,"la1":30.2992,"la2":30.254,"lo1":-89.0895,"lo2":-89.0443,"dy":0.0025,"dx":0.0025,"nx":19,"ny":19,"refTime":"2026-04-23T03:00:00:Z","depth":0,"parameterNumber":3,"parameterNumberName":"V-component_of_WINDS"},"data":[0,0,0,2.5347,2.5347,2.5334,2.5334,2.5314,2.5314,0,0,0,0,0,0,0,0,0,0,0,2.535,2.535,2.5347,2.5347,2.5334,2.5334,2.5314,2.5314,0,0,0,0,0,0,0,0,0,0,0,2.535,2.535,2.535,2.5347,2.5334,2.5334,2.5314,2.5325,0,0,0,0,0,0,0,0,0,0,2.5338,2.534,2.535,2.535,2.5347,2.5334,2.5334,2.5325,2.5324,2.5319,0,2.5316,0,2.5315,2.5313,2.5313,0,0,0,2.5347,2.5341,2.5339,2.535,2.5347,2.5334,2.534,2.5325,2.5323,2.5318,2.5316,2.5315,2.5314,2.5312,2.5312,2.5289,2.5289,0,0,2.5347,2.5347,2.534,2.5338,2.5341,2.534,2.5339,2.5324,2.5321,2.5316,2.5315,2.5314,2.5312,2.5312,2.5289,2.5289,0,0,0,2.535,2.5348,2.5345,2.5339,2.5337,2.534,2.5339,2.5322,2.5321,2.5314,2.5314,2.5312,2.5312,2.5289,2.5289,2.5284,0,0,0,2.535,2.5349,2.5346,2.5345,2.5337,2.5329,2.5337,2.5322,2.532,2.5314,2.5312,2.5312,2.5289,2.5289,2.5284,2.5281,0,0,0,2.5351,2.5349,2.5347,2.5345,2.534,2.5329,2.5328,2.5322,2.532,2.5313,2.5312,2.5289,2.5289,2.5285,2.5282,2.5276,0,0,0,2.5352,2.5342,2.5347,2.5335,2.534,2.5327,2.5328,2.5318,2.5311,2.5312,2.5289,2.5289,2.5285,2.5282,2.5276,2.527,2.5268,0,0,2.5339,2.534,2.5333,2.5338,2.5324,2.5329,2.5314,2.5307,2.5306,2.5294,2.5294,2.5284,2.5282,2.5276,2.5256,2.5254,0,0,0,2.5329,2.5324,2.532,2.5315,2.531,2.5306,2.5302,2.5299,2.529,2.53,2.528,2.5279,2.5275,2.5272,2.5271,2.5268,2.5288,2.5288,2.5288,2.5308,2.5309,2.5298,2.5297,2.5292,2.5289,2.5284,2.528,2.528,2.5276,2.5272,2.526,2.5257,2.5256,2.5253,2.527,2.527,2.527,2.527,2.5288,2.5281,2.5285,2.5276,2.5277,2.5268,2.5265,2.5266,2.5258,2.5263,2.5259,2.5264,2.5254,2.5251,2.5269,2.5269,2.5269,2.5269,2.5269,2.5274,2.5271,2.527,2.5263,2.5258,2.5258,2.5251,2.5251,2.5251,2.5248,2.5245,2.5245,2.5245,2.5247,2.5247,2.5247,2.5247,2.5247,2.5247,2.526,2.5259,2.5254,2.525,2.5248,2.5244,2.5242,2.5239,2.5236,2.5236,2.5236,2.5238,2.5253,2.5257,2.5246,2.5246,2.5246,2.5246,2.5246,2.5239,2.5245,2.5236,2.5234,2.523,2.5225,2.5227,2.5221,2.5219,2.5215,2.5218,2.523,2.523,2.5231,2.5235,2.5218,2.5218,2.5218,2.5218,2.5227,2.5229,2.5221,2.5217,2.5214,2.5215,2.5205,2.5204,2.5204,2.5202,2.5205,2.5209,2.5211,2.521,2.5212,2.5215,2.5194,2.5194,2.5194,2.5214,2.5216,2.5208,2.5209,2.5206,2.5204,2.5195,2.519,2.5191,2.5193,2.5201,2.5202,2.5209,2.5212,2.5212,2.5215,2.522,0,0]}]]